Location: Marstown
(39.5056°N, 77.0820°W)
Time: 12:44:59
(UTC-05:00)

Tiangong 2 - Visible Passes

Search period start: 19 November 2017 00:00
Search period end: 29 November 2017 00:00
Orbit: 386 x 391 km, 42.8° (Epoch: 19 November)

Date Brightness Start Highest point End Pass type
(mag) Time Alt. Az. Time Alt. Az. Time Alt. Az.
25 Nov 4.3 05:43:18 10° SSE 05:44:38 12° SE 05:45:59 10° ESE visible
26 Nov 2.5 06:19:54 10° SW 06:22:53 38° SSE 06:25:54 10° E visible
27 Nov 3.4 05:22:50 13° SSW 05:24:47 22° SSE 05:27:22 10° E visible
28 Nov 4.6 04:28:06 11° ESE 04:28:06 11° ESE 04:28:19 10° ESE visible
28 Nov 1.3 06:00:26 13° WSW 06:03:10 69° SSE 06:06:21 10° ENE visible
